FENGYUN 1C DEB, 30395

Orbit data source: Space-Track

FENGYUN 1C DEB, 30395 is space debris in SSO originally from a launch on Mon, 10 May 1999 UTC launched from the Taiyaun Space Center, China (TSC). Fengyun 1C debris stems from the Chinese weather satellite Fengyun-1C, which was intentionally destroyed by a Chinese anti-satellite missile in 2007. This event dramatically increased the amount of space debris, with thousands of trackable fragments posing hazards to satellites and human spaceflight. The Fengyun 1C debris cloud has become a focal point in discussions about space sustainability and the need for international regulations to prevent the creation of new debris.

Loading next visibility...
Identifier
30395, 1999-025ADJ
Orbit
SSO
Country
Flag of CNCN / PRC
Related business
Manufacturer
Unknown
Mission
Spacecraft
Bus & Motor
Unknown
Mass
Unknown
Launch date (UTC)
1999-05-10 (27 years ago)
Launch vehicle
Unknown
Launch site
Taiyaun Space Center, China (TSC)
Object type
Payload
Rocket body
Debris
Shape & HBR
Unknown shape, 0.1 m
Radar Cross Section
Medium (>0.1 m² and <1 m²)

Expand to show TLE details & history
Last TLE update: 10 hours ago

TLE from 10 hours ago
0 FENGYUN 1C DEB
1 30395U 99025ADJ 26150.98342035  .00000692  00000-0  47554-3 0  9998
2 30395  98.9202 166.6613 0157903 279.5033 108.4690 13.96939629983864
Epoch: 2026-05-30T23:36Z
TLE epoch observation values (Epoch: 2026-05-30T23:36:07.518Z)
Latitude
29.33145°
Longitude
-80.89491°
Altitude
946.081 km
Speed
7.362 km/s
True Right ascension
10h 46m 30s
True Declination
29° 11' 19"
Sunlit
Object was in daylight at epoch
Visualization orbit readout
Latitude
Unknown
Longitude
Unknown
Altitude
Unknown
Speed
Unknown
Apparent Right ascension
Unknown
Apparent Declination
Unknown
Sunlit
N/A
Visualization observer readout
Local Sidereal Time
18:57:21
Azimuth
Unknown
Elevation
Unknown
Doppler factor
Unknown
Orbital elements
Apogee altitude
1,016.56 km
Perigee altitude
786.661 km
Semi-major axis
7,279.748 km
Eccentricity
0.01579
Inclination
98.9202°
RAAN
166.6613°
Arg. of periapsis
279.5033°
True anomaly
110.17432°
Mean anomaly
108.469°
Eccentric anomaly
109.32275°
Mean motion
3.49437 °/min
Orbital period
103.02 mins
BSTAR
0.00047554
Loading maneuver chart data...
Computing Atmospheric mass density...
Loading historical data...
Loading historical data...
Loading historical data...
Loading historical data...
Loading historical data...
Loading historical data...
Loading historical data...

Documentation

Showing up to 5 results
|